Regional Weather Roundup
Issued by NWS

Home | Current Version | Previous Version | Graphics & Text | Print | Product List | Glossary On
Versions: 1 2 3 4 5 6 7 8 9 10 11 12 13 14 15 16 17 18 19 20 21 22 23 24 25 26 27 28 29 30 31 32 33 34 35 36 37 38 39 40 41 42 43 44 45 46 47 48 49 50
000
ASUS45 KBOI 080210
RWRID

IDAHO REGIONAL WEATHER ROUNDUP
NATIONAL WEATHER SERVICE BOISE ID
800 PM MDT TUE JUL 07 2015

NOTE: "FAIR" INDICATES FEW OR NO CLOUDS BELOW 12000 FEET
WITH NO SIGNIFICANT WEATHER AND/OR OBSTRUCTIONS TO VISIBILITY

IDZ012-014-080300-
SOUTHWEST IDAHO


CITY           SKY/WX    TMP DP  RH WIND       PRES   REMARKS
BOISE          MOSUNNY   91  43  18 W12       29.81S
CALDWELL       MOSUNNY   90  46  22 W8        29.81S
MOUNTAIN HOME  MOSUNNY   89  45  22 SW10      29.82F
$$

IDZ016-017-080300-
SOUTHCENTRAL IDAHO


CITY           SKY/WX    TMP DP  RH WIND       PRES   REMARKS
BURLEY         CLOUDY    80  50  34 NW6       29.91S
JEROME         PTSUNNY   81  48  31 S5        29.92S
TWIN FALLS     CLOUDY    79  48  33 S18G24    29.89F
$$

IDZ019>023-080300-
SOUTHEAST IDAHO


CITY           SKY/WX    TMP DP  RH WIND       PRES   REMARKS
IDAHO FALLS    PTSUNNY   69  51  52 NW16G24   29.99R
POCATELLO      MOSUNNY   82  45  27 W14       29.94S
REXBURG        PTSUNNY   71  51  49 MISG      30.00R
$$

IDZ006-010-011-018-031-032-080300-
CENTRAL IDAHO MOUNTAINS


CITY           SKY/WX    TMP DP  RH WIND       PRES   REMARKS
MCCALL         MOSUNNY   78  46  32 N12       29.99R
HAILEY         PTSUNNY   70  50  49 NW12G21   30.04F
STANLEY          N/A     68  44  42 SW5       30.10S
SALMON         CLOUDY    73  46  38 CALM      29.98F
CHALLIS        LGT RAIN  63  53  70 CALM      30.08R
$$

IDZ002-004-006-007-026-080300-
NORTHERN IDAHO


CITY           SKY/WX    TMP DP  RH WIND       PRES   REMARKS
LEWISTON       MOSUNNY   93  46  19 E7        29.76F
LOWELL           N/A     80  56  43 N3        29.80S
COEUR D`ALENE  MOSUNNY   82  46  28 N13       29.87F
MULLAN PASS    SUNNY     64  46  52 CALM      30.12F
$$


USA.gov is the U.S. government's official web portal to all federal, state and local government web resources and services.